1493812800.6,14466,14.0,74036.3,1.67,-1.99,-1.39,0,*76
1493812801.81,14467,14.0,74032.5,1.67,-1.75,-1.25,0,*78
1493812803.04,14468,14.0,74034.5,1.67,-1.63,-1.05,0,*72
1493812804.28,14469,14.0,74030.8,1.67,-1.55,-1.05,0,*76
1493812805.52,14470,14.0,74032.8,1.69,-1.47,-1.09,0,*7F
1493812806.75,14471,14.0,74030.0,1.67,-1.51,-1.05,0,*7B
1493812807.98,14472,14.0,74032.0,1.69,-1.35,-0.97,0,*4E
1493812809.18,14473,14.0,74030.8,1.69,-1.13,-0.65,0,*46
1493812810.39,14474,14.0,74028.3,1.69,-1.13,-0.73,0,*46
1493812811.62,14475,14.0,74030.8,1.69,-1.35,-0.85,0,*4A
1493812812.83,14476,14.0,74030.0,1.69,-1.51,-1.13,0,*75
1493812814.02,14477,14.0,74028.8,1.69,-1.71,-1.21,0,*77
1493812815.26,14478,14.0,74030.5,1.69,-1.47,-1.01,0,*7F
1493812816.49,14479,14.0,74032.3,1.69,-1.47,-1.09,0,*76
1493812817.7,14480,14.0,74030.5,1.67,-1.75,-1.17,0,*70
1493812818.96,14481,14.0,74028.3,1.67,-1.47,-0.93,0,*4D
1493812820.14,14482,14.0,74032.0,1.69,-1.25,-0.65,0,*4D
1493812821.37,14483,14.0,74034.5,1.67,-1.51,-1.01,0,*72
1493812822.6,14484,14.0,74030.5,1.69,-1.47,-0.97,0,*42
1493812823.83,14485,14.0,74034.5,1.69,-1.43,-0.97,0,*47
1493812825.04,14486,14.0,74034.8,1.69,-1.33,-0.97,0,*43
1493812826.23,14487,14.0,74038.8,1.69,-1.33,-0.77,0,*4C
1493812827.46,14488,14.0,74030.0,1.69,-1.47,-0.85,0,*4D
1493812828.64,14489,14.0,74030.3,1.69,-1.21,-0.61,0,*46
1493812829.85,14490,14.0,74032.8,1.67,-1.29,-0.77,0,*4F
1493812831.05,14491,14.0,74032.3,1.69,-1.51,-1.13,0,*7C
1493812832.27,14492,14.0,74028.8,1.69,-1.43,-0.77,0,*4F
1493812833.5,14493,14.0,74034.0,1.69,-1.47,-0.97,0,*44
1493812834.7,14494,14.0,74032.8,1.69,-1.51,-0.97,0,*44
1493812835.93,14495,14.0,74034.0,1.71,-1.51,-1.01,0,*72
1493812837.17,14496,14.0,74032.0,1.71,-1.87,-1.21,0,*78
1493812838.38,14497,14.0,74036.8,1.69,-1.75,-1.13,0,*7C
1493812839.57,14498,14.0,74038.8,1.69,-1.75,-1.21,0,*72
1493812840.77,14499,14.0,74028.5,1.69,-1.75,-1.13,0,*72
1493812841.98,14500,14.0,74036.3,1.69,-1.59,-1.01,0,*7E
1493812843.19,14501,14.0,74032.8,1.69,-1.43,-0.77,0,*44
1493812844.37,14502,14.0,74032.5,1.69,-1.25,-0.61,0,*40
1493812845.6,14503,14.0,74030.5,1.71,-1.75,-1.13,0,*79
1493812846.86,14504,14.0,74036.0,1.71,-1.47,-1.01,0,*7C
1493812848.07,14505,14.0,74038.3,1.69,-1.63,-1.01,0,*72
1493812849.29,14506,14.0,74032.8,1.71,-1.75,-1.21,0,*7D
1493812850.55,14507,14.0,74034.5,1.67,-1.91,-1.39,0,*78
1493812851.78,14508,14.0,74032.8,1.69,-1.47,-0.97,0,*47
1493812852.96,14509,14.0,74040.5,1.69,-1.21,-0.61,0,*4F
1493812854.17,14510,14.0,74038.5,1.69,-1.09,-0.61,0,*4D
1493812855.4,14511,14.0,74032.5,1.71,-0.89,-0.37,0,*7F
1493812856.63,14512,14.0,74030.3,1.71,-1.25,-0.85,0,*42
1493812857.86,14513,14.0,74028.0,1.71,-1.51,-1.09,0,*75
1493812859.1,14514,14.0,74034.8,1.73,-1.55,-1.09,0,*74
1493812860.31,14515,14.0,74032.8,1.73,-1.21,-0.69,0,*41
1493812861.51,14516,14.0,74030.8,1.71,-1.25,-0.61,0,*4C
1493812862.78,14517,14.0,74038.3,1.71,-1.47,-1.09,0,*76
1493812864.01,14518,14.0,74038.8,1.71,-1.63,-1.13,0,*74
1493812865.27,14519,14.0,74034.8,1.73,-1.39,-0.85,0,*46
1493812866.51,14520,14.0,74038.0,1.73,-1.55,-1.05,0,*7F
1493812867.74,14521,14.0,74032.0,1.73,-1.33,-0.93,0,*40
1493812868.95,14522,14.0,74032.5,1.71,-1.25,-0.77,0,*4C
1493812870.21,14523,14.0,74030.3,1.73,-1.47,-1.09,0,*73
1493812871.43,14524,14.0,74026.0,1.73,-1.67,-1.21,0,*7C
1493812872.64,14525,14.0,74032.8,1.71,-1.71,-1.25,0,*7C
1493812873.88,14526,14.0,74032.5,1.73,-1.95,-1.59,0,*7C
1493812875.11,14527,14.0,74034.0,1.73,-1.91,-1.59,0,*79
1493812876.38,14528,14.0,74032.8,1.73,-1.83,-1.47,0,*7A
1493812877.65,14529,14.0,74034.8,1.71,-1.87,-1.35,0,*78
1493812878.85,14530,14.0,74032.0,1.73,-1.59,-1.17,0,*71
1493812880.06,14531,14.0,74036.3,1.71,-1.75,-1.33,0,*7A
1493812881.33,14532,14.0,74036.3,1.71,-1.83,-1.35,0,*76
1493812882.56,14533,14.0,74032.3,1.71,-1.25,-0.89,0,*4D
1493812883.83,14534,14.0,74038.3,1.71,-1.83,-1.47,0,*75
1493812885.09,14535,14.0,74036.8,1.73,-1.43,-1.09,0,*70
1493812886.35,14536,14.0,74036.5,1.71,-1.43,-1.13,0,*7A
1493812887.58,14537,14.0,74034.3,1.71,-1.25,-0.89,0,*49
1493812888.85,14538,14.0,74030.8,1.73,-1.43,-1.05,0,*71
1493812890.06,14539,14.0,74040.8,1.73,-1.67,-1.33,0,*73
1493812891.3,14540,14.0,74042.5,1.73,-1.83,-1.33,0,*77
1493812892.5,14541,14.0,74042.3,1.75,-1.71,-1.21,0,*7E
1493812893.69,14542,14.0,74038.8,1.75,-1.71,-1.29,0,*75
1493812894.91,14543,14.0,74038.0,1.75,-1.91,-1.33,0,*71
1493812896.09,14544,14.0,74038.0,1.75,-1.59,-1.21,0,*71
1493812897.31,14545,14.0,74038.3,1.75,-1.33,-0.85,0,*43
1493812898.52,14546,14.0,74042.3,1.75,-1.29,-0.93,0,*4C
1493812899.76,14547,14.0,74038.3,1.77,-1.25,-1.01,0,*79
1493812900.97,14548,14.0,74034.5,1.75,-1.33,-0.93,0,*49
1493812902.17,14549,14.0,74034.0,1.79,-1.17,-0.69,0,*47
1493812903.38,14550,14.0,74038.3,1.79,-1.29,-0.93,0,*47
1493812904.6,14551,14.0,74036.3,1.79,-1.67,-1.39,0,*7D
1493812905.82,14552,14.0,74042.3,1.79,-1.87,-1.55,0,*7A
1493812907.03,14553,14.0,74038.3,1.79,-1.91,-1.63,0,*79
1493812908.23,14554,14.0,74042.3,1.79,-1.67,-1.29,0,*79
1493812909.41,14555,14.0,74036.3,1.79,-1.63,-1.25,0,*70
1493812910.65,14556,14.0,74030.5,1.81,-1.83,-1.25,0,*7A
1493812911.86,14557,14.0,74036.0,1.81,-1.71,-1.25,0,*76
1493812913.05,14558,14.0,74038.3,1.79,-1.55,-1.17,0,*79
1493812914.29,14559,14.0,74034.3,1.81,-1.75,-1.39,0,*71
1493812915.54,14560,14.0,74028.3,1.81,-1.35,-0.89,0,*45
1493812916.78,14561,14.0,74028.3,1.81,-1.33,-0.97,0,*4D
1493812918.01,14562,14.0,74036.8,1.81,-1.13,-0.65,0,*41
1493812919.23,14563,14.0,74036.3,1.81,-1.09,-0.65,0,*4B
1493812920.44,14564,14.0,74034.0,1.81,-0.77,-0.37,0,*73
1493812921.65,14565,14.0,74034.3,1.83,-1.09,-0.73,0,*48
1493812922.89,14566,14.0,74032.8,1.85,-1.33,-0.97,0,*4E
1493812924.09,14567,14.0,74038.0,1.83,-1.29,-0.85,0,*41
1493812925.33,14568,14.0,74034.8,1.85,-1.29,-0.85,0,*48
1493812926.53,14569,14.0,74032.3,1.85,-1.59,-1.33,0,*72
1493812927.74,14570,14.0,74034.8,1.83,-1.09,-0.81,0,*41
1493812928.95,14571,14.0,74036.0,1.85,-1.21,-0.81,0,*4C
1493812930.19,14572,14.0,74040.3,1.85,-1.09,-0.73,0,*48
1493812931.42,14573,14.0,74032.8,1.85,-0.93,-0.49,0,*72
1493812932.65,14574,14.0,74036.3,1.85,-1.05,-0.61,0,*41
1493812933.88,14575,14.0,74032.3,1.89,-1.01,-0.65,0,*4C
1493812935.12,14576,14.0,74032.0,1.89,-1.01,-0.69,0,*43
1493812936.37,14577,14.0,74032.3,1.89,-1.13,-0.89,0,*4F
1493812937.61,14578,14.0,74036.8,1.85,-1.09,-0.81,0,*4F
1493812938.87,14579,14.0,74036.8,1.89,-1.39,-1.05,0,*7C
1493812940.09,14580,14.0,74032.8,1.91,-1.01,-0.77,0,*4C
1493812941.29,14581,14.0,74026.0,1.89,-0.69,-0.57,0,*79
1493812942.5,14582,14.0,74026.8,1.89,-0.69,-0.45,0,*79
1493812943.7,14583,14.0,74026.8,1.89,-0.77,-0.45,0,*77
1493812944.89,14584,14.0,74030.8,1.91,-0.57,-0.37,0,*7E
1493812946.08,14585,14.0,74030.8,1.91,-0.57,-0.37,0,*7F
1493812947.27,14586,14.0,74034.3,1.91,-0.41,-0.19,0,*77
1493812948.45,14587,14.0,74036.8,1.91,-0.53,-0.37,0,*79
1493812949.64,14588,14.0,74038.5,1.91,-0.81,-0.45,0,*7C
1493812950.83,14589,14.0,74034.8,1.95,-0.73,-0.33,0,*75
1493812952.03,14590,14.0,74028.0,1.93,-0.61,-0.33,0,*78
1493812953.27,14591,14.0,74032.3,1.93,-1.25,-0.89,0,*49
1493812954.5,14592,14.0,74036.8,1.93,-1.01,-0.53,0,*4B
1493812955.77,14593,14.0,74030.8,1.93,-1.47,-1.13,0,*7D
1493812957.0,14594,14.0,74032.8,1.93,-1.29,-0.97,0,*4F
1493812958.25,14595,14.0,74030.3,1.93,-1.71,-1.39,0,*76
1493812959.51,14596,14.0,74028.3,1.93,-1.47,-1.13,0,*78
1493812960.73,14597,14.0,74028.8,1.91,-1.17,-0.89,0,*4C
1493812961.94,14598,14.0,74028.3,1.91,-1.17,-0.93,0,*48
1493812963.16,14599,14.0,74030.5,1.91,-1.05,-0.77,0,*40
1493812964.38,14600,14.0,74032.0,1.91,-1.33,-1.01,0,*76
1493812965.62,14601,14.0,74030.0,1.91,-1.43,-1.13,0,*73
1493812966.85,14602,14.0,74032.8,1.93,-0.89,-0.49,0,*7B
1493812968.06,14603,14.0,74024.3,1.93,-0.65,-0.33,0,*75
1493812969.3,14604,14.0,74022.5,1.93,-0.41,-0.27,0,*71
1493812970.48,14605,14.0,74018.5,1.95,-0.49,-0.33,0,*7B
1493812971.69,14606,14.0,74020.8,1.93,-0.49,-0.33,0,*7E
1493812972.89,14607,14.0,74024.5,1.93,-0.37,-0.33,0,*76
1493812974.1,14608,14.0,74030.8,1.93,-0.33,-0.15,0,*79
1493812975.29,14609,14.0,74030.5,1.95,0.01,0.21,0,*48
1493812976.5,14610,14.0,74034.8,1.95,0.21,0.33,0,*71
1493812977.69,14611,14.0,74034.0,1.95,0.09,0.33,0,*4A
1493812978.88,14612,14.0,74034.5,1.95,-0.03,0.13,0,*6C
1493812980.07,14613,14.0,74036.5,1.95,0.09,0.25,0,*4F
1493812981.27,14614,14.0,74030.5,1.95,-0.23,-0.03,0,*44
1493812982.45,14615,14.0,74028.3,1.95,-0.33,-0.11,0,*77
1493812983.65,14616,14.0,74034.5,1.97,-0.19,0.01,0,*62
1493812984.86,14617,14.0,74034.0,1.99,-0.27,-0.15,0,*78
1493812986.06,14618,14.0,74034.0,1.97,-0.33,-0.19,0,*70
1493812987.28,14619,14.0,74030.5,1.97,-0.23,0.01,0,*64
1493812988.47,14620,14.0,74030.8,1.97,-0.11,0.01,0,*6F
1493812989.68,14621,14.0,74034.8,1.97,0.05,0.25,0,*40
1493812990.87,14622,14.0,74028.8,1.99,-0.07,0.17,0,*63
1493812992.06,14623,14.0,74028.5,1.99,0.09,0.21,0,*44
1493812993.28,14624,14.0,74028.3,1.99,0.17,0.29,0,*74
1493812994.49,14625,14.0,74036.0,1.99,0.29,0.41,0,*76
1493812995.7,14626,14.0,74030.8,1.99,0.21,0.29,0,*73
1493812996.94,14627,14.0,74034.3,1.97,0.29,0.29,0,*74
1493812998.1,14628,14.0,74034.0,1.99,-0.07,0.09,0,*56
1493812999.3,14629,14.0,74036.5,1.99,-0.03,0.17,0,*6C
1493813000.51,14630,14.0,74034.8,2.01,0.09,0.29,0,*4C
1493813001.73,14631,14.0,74036.5,2.01,0.09,0.21,0,*45
1493813002.95,14632,14.0,74034.3,2.01,0.09,0.21,0,*46
1493813004.18,14633,14.0,74032.0,2.01,-0.27,-0.19,0,*70
1493813005.41,14634,14.0,74034.0,2.01,-0.33,-0.27,0,*7F
1493813006.64,14635,14.0,74024.5,2.01,-0.27,-0.15,0,*7A
1493813007.84,14636,14.0,74026.5,1.99,-0.29,-0.27,0,*74
1493813009.05,14637,14.0,74028.0,2.01,-0.57,-0.45,0,*7A
1493813010.26,14638,14.0,74026.5,2.01,-0.65,-0.57,0,*77
1493813011.46,14639,14.0,74028.3,1.99,-0.29,-0.27,0,*7B
1493813012.64,14640,14.0,74030.5,1.99,-0.19,-0.19,0,*7B
1493813013.82,14641,14.0,74032.8,1.99,-0.65,-0.45,0,*78
1493813015.03,14642,14.0,74038.0,1.99,-0.27,-0.19,0,*74
1493813016.23,14643,14.0,74038.3,1.97,-0.29,-0.19,0,*75
1493813017.42,14644,14.0,74038.3,1.99,-0.19,-0.11,0,*77
1493813018.63,14645,14.0,74036.5,1.97,0.05,0.13,0,*47
1493813019.8,14646,14.0,74036.0,1.99,-0.15,-0.07,0,*4E
1493813021.0,14647,14.0,74032.3,1.97,-0.29,-0.29,0,*72
1493813022.17,14648,14.0,74034.0,1.99,-0.33,-0.29,0,*78
1493813023.36,14649,14.0,74036.3,1.99,-0.41,-0.33,0,*77
1493813024.55,14650,14.0,74032.3,1.99,-0.57,-0.41,0,*7D
1493813025.75,14651,14.0,74038.0,1.97,-0.49,-0.37,0,*7C
1493813026.96,14652,14.0,74034.0,1.99,-0.27,-0.15,0,*79
1493813028.14,14653,14.0,74030.3,1.99,-0.29,-0.19,0,*7A
1493813029.32,14654,14.0,74032.3,1.99,-0.65,-0.45,0,*7C
1493813030.5,14655,14.0,74034.8,1.99,-0.65,-0.53,0,*7A
1493813031.68,14656,14.0,74032.8,1.99,-0.37,-0.29,0,*73
1493813032.9,14657,14.0,74036.3,1.97,-0.37,-0.23,0,*76
1493813034.11,14658,14.0,74038.8,1.99,-0.53,-0.27,0,*71
1493813035.29,14659,14.0,74036.3,1.99,-0.33,-0.19,0,*7B
1493813036.47,14660,14.0,74040.5,1.99,-0.69,-0.53,0,*70
1493813037.67,14661,14.0,74040.0,1.97,-0.81,-0.57,0,*7D
1493813038.85,14662,14.0,74036.8,1.99,-0.53,-0.29,0,*76
1493813040.06,14663,14.0,74038.3,1.97,-0.57,-0.33,0,*76
1493813041.24,14664,14.0,74034.8,1.99,-0.57,-0.33,0,*7F
1493813042.42,14665,14.0,74036.3,1.99,-0.29,-0.19,0,*7F
1493813043.63,14666,14.0,74038.8,1.99,-0.41,-0.27,0,*7F
1493813044.83,14667,14.0,74040.0,1.99,-0.89,-0.77,0,*7F
1493813046.02,14668,14.0,74038.0,1.99,-0.57,-0.33,0,*73
1493813047.22,14669,14.0,74032.3,1.99,-0.89,-0.81,0,*78
1493813048.47,14670,14.0,74034.0,1.97,-0.97,-0.93,0,*72
1493813049.65,14671,14.0,74032.5,1.99,-0.57,-0.45,0,*7A
1493813050.83,14672,14.0,74038.3,1.99,-0.29,-0.19,0,*79
1493813052.04,14673,14.0,74034.8,1.97,-0.57,-0.33,0,*77
1493813053.23,14674,14.0,74036.5,1.99,-0.65,-0.41,0,*7A
1493813054.41,14675,14.0,74034.8,1.99,-0.65,-0.45,0,*7F
1493813055.59,14676,14.0,74036.5,1.99,-0.81,-0.69,0,*78
1493813056.77,14677,14.0,74042.5,1.99,-0.69,-0.57,0,*72
1493813057.98,14678,14.0,74034.3,1.99,-0.89,-0.77,0,*71
1493813059.19,14679,14.0,74034.5,1.99,-0.89,-0.77,0,*70
1493813060.37,14680,14.0,74032.3,1.99,-0.69,-0.53,0,*7E
1493813061.54,14681,14.0,74038.3,1.99,-0.69,-0.53,0,*7F
1493813062.73,14682,14.0,74036.0,1.99,-0.57,-0.45,0,*76
1493813063.93,14683,14.0,74030.0,2.01,-0.57,-0.45,0,*75
1493813065.11,14684,14.0,74026.3,1.99,-0.53,-0.45,0,*74
1493813066.29,14685,14.0,74030.5,1.99,-0.69,-0.53,0,*7B
1493813067.5,14686,14.0,74036.8,1.99,-0.89,-0.65,0,*73
1493813068.68,14687,14.0,74034.3,1.99,-0.69,-0.45,0,*7E
1493813069.88,14688,14.0,74032.5,1.97,-0.45,-0.29,0,*7B
1493813071.08,14689,14.0,74032.5,1.99,-0.33,-0.27,0,*7B
1493813072.26,14690,14.0,74040.5,1.99,-0.69,-0.65,0,*7A
1493813073.46,14691,14.0,74036.0,1.99,-0.41,-0.27,0,*77
1493813074.67,14692,14.0,74034.0,1.99,-0.27,-0.15,0,*75
1493813075.9,14693,14.0,74030.5,1.99,-0.27,-0.27,0,*75
1493813077.08,14694,14.0,74028.8,1.99,-0.41,-0.29,0,*7C
1493813078.28,14695,14.0,74034.5,1.99,-0.29,-0.27,0,*7D
1493813079.47,14696,14.0,74038.3,1.97,-0.29,-0.29,0,*7E
1493813080.68,14697,14.0,74038.8,1.99,-0.27,-0.19,0,*7C
1493813081.86,14698,14.0,74038.0,1.99,-0.15,-0.07,0,*4D
1493813083.04,14699,14.0,74032.8,1.99,-0.19,-0.19,0,*7F
1493813084.22,14700,14.0,74038.0,1.99,-0.65,-0.69,0,*72
1493813085.4,14701,14.0,74038.3,1.99,-0.57,-0.65,0,*7E
1493813086.59,14702,14.06,74038.5,1.99,-0.45,-0.41,0,*78
1493813087.79,14703,14.0,74032.3,1.97,-0.19,-0.11,0,*7B
1493813088.97,14704,14.0,74028.5,1.99,-0.29,-0.29,0,*7A
1493813090.15,14705,14.0,74032.3,1.99,-0.69,-0.69,0,*7B
1493813091.33,14706,14.0,74034.3,1.99,-0.77,-0.69,0,*77
1493813092.53,14707,14.0,74030.5,1.99,-0.89,-0.69,0,*77
1493813093.72,14708,14.0,74034.5,1.99,-0.45,-0.41,0,*72
1493813094.9,14709,14.0,74036.3,1.99,-0.65,-0.65,0,*77
1493813096.1,14710,14.0,74038.0,1.97,-0.57,-0.49,0,*7E
1493813097.31,14711,14.06,74040.3,1.97,-0.57,-0.57,0,*70
1493813098.49,14712,14.0,74032.3,1.99,-0.53,-0.45,0,*7A
1493813099.69,14713,14.0,74032.0,1.97,-0.61,-0.49,0,*78
1493813100.87,14714,14.0,74038.5,1.99,-0.69,-0.61,0,*73
1493813102.07,14715,14.0,74026.8,1.97,-0.73,-0.61,0,*77
1493813103.28,14716,14.0,74032.0,1.97,-0.37,-0.33,0,*73
1493813104.48,14717,14.0,74032.8,1.97,-0.69,-0.69,0,*76
1493813105.68,14718,14.0,74036.3,1.97,-0.69,-0.57,0,*74
1493813106.87,14719,14.0,74034.3,1.95,-0.65,-0.49,0,*74
1493813108.05,14720,14.0,74034.0,1.95,-0.53,-0.49,0,*7B
1493813109.24,14721,14.0,74032.8,1.95,-0.37,-0.37,0,*71
1493813110.46,14722,14.0,74034.0,1.93,-0.49,-0.27,0,*7C
1493813111.65,14723,14.0,74026.3,1.95,-0.53,-0.41,0,*70
1493813112.86,14724,14.0,74028.3,1.93,-0.49,-0.41,0,*7A
1493813114.09,14725,14.06,74024.3,1.95,-0.97,-0.85,0,*76
1493813115.27,14726,14.0,74020.8,1.95,-0.49,-0.33,0,*7B
1493813116.48,14727,14.0,74020.3,1.93,-0.49,-0.37,0,*78
1493813117.68,14728,14.0,74020.8,1.93,-0.11,0.01,0,*62
1493813118.92,14729,14.0,74020.5,1.93,0.21,0.25,0,*7B
1493813120.16,14730,14.0,74020.8,1.93,0.21,0.33,0,*74
1493813121.37,14731,14.0,74024.5,1.95,0.21,0.33,0,*73
1493813122.56,14732,14.0,74034.0,1.95,0.09,0.13,0,*48
1493813123.77,14733,14.0,74038.3,1.95,0.25,0.25,0,*72
1493813124.99,14734,14.0,74036.0,1.95,0.33,0.47,0,*76
1493813126.22,14735,14.0,74032.0,1.97,0.41,0.51,0,*77
1493813127.43,14736,14.0,74034.3,1.99,0.17,0.29,0,*76
1493813128.61,14737,14.0,74032.0,1.99,-0.15,-0.07,0,*49
1493813129.81,14738,14.0,74030.3,1.97,-0.33,-0.29,0,*70
1493813131.02,14739,14.0,74026.3,1.97,-0.19,-0.11,0,*72
1493813132.2,14740,14.0,74024.3,1.99,0.09,0.17,0,*45
1493813133.37,14741,14.06,74034.8,1.99,0.05,0.05,0,*7B
1493813134.57,14742,14.0,74024.3,1.97,-0.37,-0.29,0,*79
1493813135.78,14743,14.06,74038.3,1.97,-0.37,-0.33,0,*73
1493813137.0,14744,14.0,74034.5,1.97,-0.29,-0.23,0,*7A
1493813138.2,14745,14.0,74028.0,1.97,-0.49,-0.49,0,*71
1493813139.41,14746,14.0,74020.0,1.97,-0.69,-0.73,0,*79
1493813140.62,14747,14.0,74016.3,1.97,-0.19,-0.19,0,*73
1493813141.83,14748,14.06,74018.5,1.97,0.05,0.13,0,*4B
1493813143.03,14749,14.06,74020.0,1.99,0.33,0.33,0,*73
1493813144.27,14750,14.0,74022.5,1.97,0.13,0.13,0,*75
1493813145.48,14751,14.06,74024.8,1.99,0.21,0.33,0,*79
1493813146.71,14752,14.0,74024.3,1.97,0.25,0.29,0,*7B
1493813147.94,14753,14.0,74026.0,1.97,0.17,0.25,0,*77
1493813149.18,14754,14.06,74030.0,1.97,0.37,0.41,0,*70
1493813150.37,14755,14.06,74030.5,1.99,0.41,0.43,0,*7C
1493813151.56,14756,14.0,74030.5,1.99,-0.03,0.13,0,*61
1493813152.73,14757,14.0,74032.0,1.99,-0.03,0.05,0,*57
1493813153.93,14758,14.06,74036.5,1.99,-0.33,-0.27,0,*76
1493813155.1,14759,14.0,74036.0,1.99,-0.33,-0.29,0,*79
1493813156.29,14760,14.06,74040.8,1.99,-0.19,-0.19,0,*78
1493813157.49,14761,14.0,74036.0,1.97,-0.33,-0.33,0,*77
1493813158.7,14762,14.06,74038.5,1.97,-0.57,-0.49,0,*7B
1493813159.9,14763,14.0,74036.8,1.97,-0.57,-0.49,0,*7A
1493813161.1,14764,14.0,74032.0,1.97,-0.61,-0.61,0,*72
1493813162.3,14765,14.06,74032.3,1.97,-0.45,-0.33,0,*72
1493813163.51,14766,14.0,74026.5,1.97,0.05,0.25,0,*42
1493813164.72,14767,14.06,74032.5,1.99,0.33,0.41,0,*7A
1493813165.95,14768,14.06,74030.8,1.97,0.17,0.29,0,*73
1493813167.19,14769,14.06,74028.8,1.97,0.13,0.17,0,*7B
1493813168.4,14770,14.06,74032.5,1.99,0.17,0.21,0,*7C
1493813169.59,14771,14.06,74036.3,1.97,-0.07,0.05,0,*59
1493813170.79,14772,14.0,74034.5,1.97,-0.29,-0.33,0,*7E
1493813171.99,14773,14.0,74034.5,1.99,-0.29,-0.27,0,*74
1493813173.17,14774,14.0,74032.3,1.99,-0.37,-0.29,0,*72
1493813174.37,14775,14.0,74030.8,1.97,-0.45,-0.33,0,*73
1493813175.57,14776,14.06,74028.8,1.97,-0.29,-0.29,0,*71
1493813176.79,14777,14.0,74020.3,1.97,-0.29,-0.23,0,*7A
1493813177.97,14778,14.0,74028.5,1.99,-0.19,-0.07,0,*4E
1493813179.19,14779,14.0,74028.0,1.99,0.21,0.29,0,*78
1493813180.4,14780,14.06,74032.8,1.99,0.21,0.29,0,*7E
1493813181.58,14781,14.0,74030.3,1.97,0.01,0.01,0,*79
1493813182.75,14782,14.0,74030.5,1.99,-0.03,-0.03,0,*74
1493813183.96,14783,14.06,74030.3,1.97,0.05,0.13,0,*4C
1493813185.17,14784,14.0,74028.0,1.99,0.29,0.33,0,*79
1493813186.4,14785,14.06,74028.8,1.97,0.17,0.25,0,*7C
1493813187.57,14786,14.0,74024.0,1.99,-0.03,-0.03,0,*70
1493813188.76,14787,14.0,74022.8,1.97,0.01,0.05,0,*7B
1493813189.97,14788,14.0,74024.5,1.99,0.21,0.29,0,*76
1493813191.16,14789,14.06,74030.0,1.99,0.41,0.43,0,*7D
1493813192.4,14790,14.0,74030.5,1.97,0.29,0.29,0,*79
1493813193.61,14791,14.06,74030.8,1.99,0.41,0.41,0,*76
1493813194.77,14792,14.0,74030.8,1.99,0.05,0.09,0,*79
1493813195.94,14793,14.0,74028.3,1.99,0.09,0.05,0,*78
1493813197.11,14794,14.06,74028.8,1.99,-0.03,-0.07,0,*77
1493813198.34,14795,14.0,74028.5,1.99,-0.27,-0.27,0,*72
1493813199.51,14796,14.06,74032.8,1.99,-0.07,0.05,0,*5E
1493813200.68,14797,14.06,74032.3,1.99,-0.07,-0.15,0,*43
1493813201.89,14798,14.06,74026.5,1.97,-0.57,-0.49,0,*7E
1493813203.09,14799,14.0,74024.0,1.97,-0.61,-0.57,0,*75
1493813204.29,14800,14.0,74024.8,1.97,-0.57,-0.45,0,*7C
1493813205.5,14801,14.0,74024.8,1.97,-0.57,-0.49,0,*71
1493813206.72,14802,14.0,74024.3,1.97,-0.29,-0.23,0,*77
1493813207.95,14803,14.0,74026.8,1.99,-0.27,-0.27,0,*72
1493813209.15,14804,14.06,74028.8,1.97,-0.33,-0.29,0,*70
1493813210.35,14805,14.0,74024.8,1.97,-0.37,-0.33,0,*7E
1493813211.53,14806,14.0,74024.5,1.95,-0.61,-0.53,0,*7A
1493813212.71,14807,14.06,74028.8,1.95,-0.65,-0.65,0,*7A
1493813213.89,14808,14.06,74030.3,1.95,-0.49,-0.41,0,*7D
1493813215.08,14809,14.06,74030.5,1.95,-0.41,-0.33,0,*71
1493813216.31,14810,14.06,74028.0,1.93,-0.37,-0.27,0,*7B
1493813217.48,14811,14.06,74028.8,1.95,-0.65,-0.61,0,*79
1493813218.67,14812,14.06,74024.3,1.95,-0.37,-0.33,0,*7A
1493813219.88,14813,14.06,74028.0,1.93,-0.37,-0.33,0,*7D
1493813221.09,14814,14.0,74028.8,1.93,-0.33,-0.33,0,*7E
1493813222.29,14815,14.06,74028.5,1.93,-0.33,-0.33,0,*7F
1493813223.52,14816,14.06,74030.8,1.93,-0.33,-0.27,0,*79
1493813224.74,14817,14.06,74032.5,1.93,-0.41,-0.41,0,*7D
1493813225.94,14818,14.0,74028.0,1.93,-0.61,-0.49,0,*78
1493813227.13,14819,14.06,74030.8,1.91,-0.41,-0.37,0,*70
1493813228.34,14820,14.06,74032.0,1.93,-0.15,-0.11,0,*7D
1493813229.55,14821,14.06,74028.8,1.95,-0.23,-0.11,0,*7F
1493813230.76,14822,14.06,74034.3,1.95,-0.27,-0.15,0,*7C
1493813231.99,14823,14.0,74030.0,1.93,-0.33,-0.27,0,*7F
1493813233.2,14824,14.0,74030.3,1.93,-0.49,-0.41,0,*75
1493813234.38,14825,14.06,74034.3,1.95,-0.65,-0.61,0,*7E
1493813235.56,14826,14.0,74028.3,1.95,-0.53,-0.49,0,*72
1493813236.82,14827,14.0,74028.3,1.93,-0.27,-0.23,0,*7A
1493813238.05,14828,14.06,74034.3,1.93,-0.27,-0.15,0,*70
1493813239.25,14829,14.0,74030.0,1.95,-0.33,-0.23,0,*77
1493813240.48,14830,14.0,74032.8,1.93,-0.23,-0.03,0,*4A
1493813241.71,14831,14.0,74032.0,1.93,-0.33,-0.27,0,*7C
1493813242.92,14832,14.06,74024.8,1.93,-0.41,-0.37,0,*7B
1493813244.13,14833,14.06,74028.5,1.93,-0.49,-0.41,0,*73
1493813245.34,14834,14.06,74028.0,1.93,-0.41,-0.33,0,*79
1493813246.6,14835,14.06,74026.8,1.93,-0.23,-0.23,0,*7D
1493813247.81,14836,14.0,74022.0,1.93,-0.37,-0.33,0,*7A
1493813249.02,14837,14.0,74016.3,1.93,-0.53,-0.37,0,*7D
1493813250.24,14838,14.06,74024.3,1.93,-0.33,-0.23,0,*71
1493813251.47,14839,14.06,74024.0,1.93,-0.27,-0.03,0,*47
1493813252.68,14840,14.0,74024.0,1.93,-0.15,-0.11,0,*7B
1493813253.92,14841,14.0,74020.5,1.93,-0.27,-0.11,0,*7B
1493813255.15,14842,14.06,74024.5,1.93,-0.27,-0.03,0,*4B
1493813256.31,14843,14.0,74024.8,1.95,-0.03,0.01,0,*55
1493813257.49,14844,14.06,74030.0,1.95,-0.11,0.01,0,*61
1493813258.69,14845,14.06,74028.8,1.93,-0.65,-0.53,0,*7F
1493813259.9,14846,14.06,74030.3,1.93,-0.37,-0.33,0,*7D
1493813261.11,14847,14.0,74028.8,1.93,-0.53,-0.49,0,*73
1493813262.32,14848,14.06,74026.3,1.93,-0.73,-0.61,0,*74
1493813263.52,14849,14.0,74024.0,1.93,-0.77,-0.65,0,*75
1493813264.73,14850,14.0,74022.3,1.91,-0.37,-0.27,0,*7D
1493813265.92,14851,14.0,74006.5,1.91,-0.41,-0.29,0,*73
1493813267.11,14852,14.06,74012.5,1.93,-0.03,0.01,0,*53
1493813268.31,14853,14.0,74022.0,1.93,0.01,0.13,0,*4E
1493813269.52,14854,14.06,74022.0,1.93,-0.11,-0.03,0,*49
1493813270.72,14855,14.06,74022.8,1.93,-0.11,0.01,0,*67
1493813271.92,14856,14.0,74022.5,1.93,-0.15,-0.03,0,*4F
1493813273.12,14857,14.06,74026.0,1.95,-0.03,0.13,0,*63
1493813274.35,14858,14.06,74024.5,1.93,0.13,0.13,0,*76
1493813275.59,14859,14.06,74026.0,1.93,0.25,0.37,0,*74
1493813276.81,14860,14.0,74026.3,1.95,0.25,0.37,0,*78
1493813278.02,14861,14.0,74026.5,1.95,0.37,0.47,0,*7D
1493813279.24,14862,14.06,74024.0,1.95,0.25,0.37,0,*7A
1493813280.42,14863,14.06,74022.8,1.95,0.09,0.25,0,*46
1493813281.67,14864,14.06,74024.5,1.93,0.41,0.47,0,*7F
1493813282.88,14865,14.06,74024.0,1.95,0.33,0.37,0,*7A
1493813284.09,14866,14.0,74024.8,1.95,0.25,0.25,0,*7D
1493813285.31,14867,14.06,74028.3,1.95,0.47,0.51,0,*7B
1493813286.55,14868,14.06,74032.5,1.97,0.51,0.51,0,*71
1493813287.79,14869,14.06,74028.8,1.97,0.25,0.29,0,*7C
1493813289.02,14870,14.06,74028.3,1.97,0.13,0.13,0,*78
1493813290.19,14871,14.0,74024.8,1.99,-0.29,-0.29,0,*77
1493813291.39,14872,14.06,74028.5,1.97,-0.49,-0.57,0,*75
1493813292.59,14873,14.06,74034.0,1.97,-0.49,-0.45,0,*77
1493813293.78,14874,14.0,74028.0,1.95,-0.37,-0.33,0,*7A
1493813294.96,14875,14.06,74026.0,1.95,-0.33,-0.33,0,*7F
1493813296.14,14876,14.06,74024.5,1.95,-0.37,-0.37,0,*7C
1493813297.4,14877,14.06,74028.0,1.93,-0.27,-0.23,0,*7F
1493813298.63,14878,14.06,74034.3,1.93,-0.23,-0.15,0,*71
1493813299.86,14879,14.06,74038.3,1.95,-0.27,-0.27,0,*73
1493813301.07,14880,14.0,74034.8,1.93,-0.15,-0.11,0,*77
1493813302.29,14881,14.0,74032.0,1.93,-0.41,-0.41,0,*72
1493813303.5,14882,14.06,74036.0,1.93,-0.37,-0.33,0,*75
1493813304.71,14883,14.06,74036.0,1.93,-0.33,-0.33,0,*70
1493813305.9,14884,14.06,74038.5,1.91,-0.19,-0.15,0,*79
1493813307.1,14885,14.06,74038.3,1.91,-0.27,-0.07,0,*46
1493813308.3,14886,14.06,74038.0,1.91,-0.29,-0.27,0,*79
1493813309.48,14887,14.06,74038.0,1.91,-0.15,-0.03,0,*41
1493813310.67,14888,14.06,74036.0,1.91,0.09,0.29,0,*4B
1493813311.89,14889,14.06,74036.8,1.91,0.21,0.33,0,*7B
1493813313.1,14890,14.06,74030.5,1.91,0.21,0.33,0,*73
1493813314.32,14891,14.06,74032.5,1.91,0.29,0.33,0,*7A
1493813315.56,14892,14.06,74034.8,1.93,0.37,0.47,0,*77
1493813316.77,14893,14.06,74030.5,1.95,0.33,0.47,0,*74
1493813317.98,14894,14.06,74034.8,1.95,0.21,0.33,0,*73
1493813319.2,14895,14.06,74040.8,1.95,0.25,0.37,0,*72